Lytton Rcs, British Columbia

11:54 AM PST on February 19, 2017 (GMT -0800)
Lytton Rcs

Weather History for CVLY - December, 2013

Change the Weather History Date:

Tuesday, December 31, 2013

  Actual Average Record
Temperature  
Mean Temperature 42 °F -  
Max Temperature 50 °F - - ()
Min Temperature 33 °F - - ()
Degree Days  
Heating Degree Days 24    
Moisture  
Dew Point 35 °F    
Average Humidity 73    
Maximum Humidity 93    
Minimum Humidity 56    
Precipitation  
Precipitation 0.00 in - - ()
Sea Level Pressure  
Sea Level Pressure 30.19 in    
Wind  
Wind Speed 12 mph ()    
Max Wind Speed 23 mph    
Max Gust Speed 37 mph    
T = Trace of Precipitation, MM = Missing Value Source: Averaged Metar Reports

Daily Weather History Graph

Daily Weather History Graph

Search for Another Location

Airport or City:

Trip Planner

Search our weather history database for the weather conditions in past years. The results will help you decide how hot, cold, wet, or windy it might be!

Date:

Astronomy

Dec. 31, 2013 Rise Set
Actual Time 8:05 AM PST 4:13 PM PST
Civil Twilight 7:27 AM PST 4:51 PM PST
Nautical Twilight 6:45 AM PST 5:33 PM PST
Astronomical Twilight 6:06 AM PST 6:13 PM PST
Moon 6:59 AM PST (12/31) 4:00 PM PST (12/31)
Length of Visible Light 9h 24m
Length of Day
8h 07m
Waning Crescent, 1% of the Moon is Illuminated
Dec 31
Waning Crescent
Jan 1
New
Jan 7
First Quarter
Jan 15
Full
Jan 23
Last Quarter

Hourly Weather History & Observations

Time (PST) Temp. Windchill Dew Point Humidity Pressure Visibility Wind Dir Wind Speed Gust Speed Precip Events Conditions
12:00 AM 46.9 °F - 34.7 °F 62% 30.01 in - SSW 20.7 mph 29.9 mph N/A   Unknown
1:00 AM 46.9 °F - 34.7 °F 62% 30.03 in - SSW 21.9 mph 33.4 mph N/A   Unknown
2:00 AM 46.6 °F - 34.9 °F 64% 30.04 in - South 23.0 mph 36.8 mph N/A   Unknown
3:00 AM 46.2 °F 39.3 °F 34.7 °F 64% 30.05 in - SSW 17.3 mph 29.9 mph N/A   Unknown
4:00 AM 46 °F - 35 °F 56% 30.06 in - South 19.6 mph - -  
4:00 AM 45.7 °F 38.0 °F 35.2 °F 67% 30.06 in - South 19.6 mph 33.4 mph N/A   Unknown
5:00 AM 45.9 °F 39.4 °F 35.2 °F 66% 30.07 in - South 15.0 mph 31.1 mph N/A   Unknown
6:00 AM 45.7 °F 38.3 °F 35.8 °F 68% 30.07 in - South 18.4 mph 31.1 mph N/A   Unknown
7:00 AM 45.9 °F 38.8 °F 35.8 °F 68% 30.11 in - South 17.3 mph 26.5 mph N/A   Unknown
8:00 AM 45.5 °F 40.3 °F 36.3 °F 70% 30.13 in - South 10.4 mph 23.0 mph N/A   Unknown
9:00 AM 38.5 °F 33.4 °F 32.9 °F 80% 30.17 in - North 6.9 mph - N/A   Unknown
10:00 AM 38 °F - 33 °F 77% 30.21 in - North 4.6 mph - -  
10:00 AM 38.3 °F 34.8 °F 33.4 °F 83% 30.21 in - North 4.6 mph - N/A   Unknown
11:00 AM 40.3 °F 38.2 °F 33.3 °F 76% 30.21 in - North 3.5 mph - N/A   Unknown
12:00 PM 48.2 °F - 37.0 °F 65% 30.20 in - South 9.2 mph - N/A   Unknown
1:00 PM 49.5 °F - 37.4 °F 63% 30.18 in - South 17.3 mph 23.0 mph N/A   Unknown
2:00 PM 49.3 °F - 36.3 °F 61% 30.19 in - South 20.7 mph - N/A   Unknown
3:00 PM 46.4 °F 39.8 °F 36.1 °F 67% 30.21 in - South 16.1 mph 21.9 mph N/A   Unknown
4:00 PM 44 °F - 35 °F 61% 30.24 in - South 3.5 mph - -  
4:00 PM 43.5 °F - 34.9 °F 72% 30.24 in - NW 1.2 mph - N/A   Unknown
5:00 PM 43.5 °F 40.9 °F 35.6 °F 74% 30.26 in - South 4.6 mph - N/A   Unknown
6:00 PM 39.0 °F 36.8 °F 34.3 °F 83% 30.28 in - NNE 3.5 mph - N/A   Unknown
7:00 PM 37.6 °F 35.1 °F 33.8 °F 86% 30.31 in - North 3.5 mph - N/A   Unknown
8:00 PM 36.0 °F - 32.9 °F 89% 30.33 in - North 2.3 mph - N/A   Unknown
9:00 PM 35.1 °F - 33.3 °F 93% 30.35 in - NNE 1.2 mph - N/A   Unknown
10:00 PM 35 °F - 33 °F 88% 30.36 in - North 3.5 mph - -  
10:00 PM 34.5 °F 31.6 °F 32.7 °F 93% 30.36 in - NNE 3.5 mph - N/A   Unknown
11:00 PM 33.6 °F - 31.8 °F 93% 30.38 in - NE 1.2 mph - N/A   Unknown